FW5929 Weather Reports


Display with metric or nautical units.
time (UTC)temp
F
wind
direction
speed
MPH
gust
MPH
rain 1hr
in
rain 24hr
in
rain mn
in
humidity
%
barometer
mb
20200714120331 74 269 10.0 14.0 0.00 0.00 0.00 37 1016.6
20200714115846 74 245 7.0 12.0 0.00 0.00 0.00 38 1016.6
20200714115324 74 144 2.0 15.0 0.00 0.00 0.00 40 1016.6
20200714114840 73 250 8.0 15.0 0.00 0.00 0.00 38 1016.7
20200714114339 73 27 3.0 12.0 0.00 0.00 0.00 41 1016.7
20200714113835 73 304 5.0 12.0 0.00 0.00 0.00 39 1016.7
20200714113317 73 147 7.0 10.0 0.00 0.00 0.00 39 1016.8
20200714112829 72 285 1.0 11.0 0.00 0.00 0.00 39 1016.8
20200714112338 73 250 4.0 11.0 0.00 0.00 0.00 40 1016.9
20200714111846 73 296 7.0 11.0 0.00 0.00 0.00 41 1017.0
20200714111323 72 284 5.0 11.0 0.00 0.00 0.00 39 1017.0
20200714110831 73 346 5.0 10.0 0.00 0.00 0.00 41 1017.0
20200714110342 72 253 3.0 12.0 0.00 0.00 0.00 41 1017.0
20200714105830 72 302 6.0 14.0 0.00 0.00 0.00 42 1017.0
20200714105325 72 234 7.0 14.0 0.00 0.00 0.00 39 1017.1
20200714104833 73 269 7.0 12.0 0.00 0.00 0.00 42 1017.1
20200714104339 72 193 4.0 12.0 0.00 0.00 0.00 39 1017.1
20200714103833 71 277 4.0 9.0 0.00 0.00 0.00 41 1017.2
20200714103324 70 338 4.0 8.0 0.00 0.00 0.00 41 1017.3
20200714102843 71 159 4.0 8.0 0.00 0.00 0.00 41 1017.3
20200714102340 71 130 3.0 8.0 0.00 0.00 0.00 43 1017.3
20200714101835 70 288 3.0 8.0 0.00 0.00 0.00 44 1017.4
20200714101332 70 210 2.0 9.0 0.00 0.00 0.00 43 1017.3
20200714100832 69 186 6.0 9.0 0.00 0.00 0.00 44 1017.3
20200714100322 69 184 4.0 7.0 0.00 0.00 0.00 45 1017.4
20200714095850 69 186 2.0 9.0 0.00 0.00 0.00 43 1017.5
20200714095327 69 285 2.0 9.0 0.00 0.00 0.00 42 1017.5
20200714094842 69 311 2.0 9.0 0.00 0.00 0.00 42 1017.5
20200714094322 70 288 2.0 10.0 0.00 0.00 0.00 43 1017.6
20200714093853 70 318 6.0 10.0 0.00 0.00 0.00 40 1017.6
20200714093342 70 297 2.0 8.0 0.00 0.00 0.00 46 1017.6
20200714092831 69 317 5.0 8.0 0.00 0.00 0.00 46 1017.7
20200714092329 69 250 5.0 7.0 0.00 0.00 0.00 42 1017.8
20200714091854 68 286 4.0 7.0 0.00 0.00 0.00 43 1017.9
20200714091332 67 259 2.0 7.0 0.00 0.00 0.00 44 1017.8
20200714090846 67 270 4.0 8.0 0.00 0.00 0.00 43 1017.8
20200714090327 66 227 4.0 8.0 0.00 0.00 0.00 43 1017.8
20200714085829 66 270 3.0 7.0 0.00 0.00 0.00 44 1017.9
20200714085338 66 240 4.0 6.0 0.00 0.00 0.00 46 1017.9
20200714084840 65 300 2.0 6.0 0.00 0.00 0.00 47 1018.0
20200714084338 66 289 5.0 7.0 0.00 0.00 0.00 46 1018.0
20200714083858 66 310 4.0 5.0 0.00 0.00 0.00 50 1018.0
20200714083334 66 306 3.0 6.0 0.00 0.00 0.00 50 1018.1
20200714082832 65 293 4.0 9.0 0.00 0.00 0.00 51 1018.1
20200714082323 64 315 5.0 10.0 0.00 0.00 0.00 48 1018.2
20200714081848 64 331 5.0 9.0 0.00 0.00 0.00 46 1018.1
20200714081344 64 319 4.0 8.0 0.00 0.00 0.00 51 1018.1
20200714080840 63 326 5.0 8.0 0.00 0.00 0.00 54 1018.1
20200714080333 63 330 4.0 8.0 0.00 0.00 0.00 57 1018.2
20200714075833 62 327 3.0 6.0 0.00 0.00 0.00 59 1018.2
20200714075338 62 343 2.0 6.0 0.00 0.00 0.00 61 1018.2
20200714074848 62 13 2.0 8.0 0.00 0.00 0.00 58 1018.2
20200714074325 62 345 3.0 8.0 0.00 0.00 0.00 55 1018.2
20200714073834 62 331 4.0 10.0 0.00 0.00 0.00 55 1018.3
20200714073323 63 312 7.0 10.0 0.00 0.00 0.00 50 1018.3
20200714072850 63 319 6.0 10.0 0.00 0.00 0.00 51 1018.3
20200714072339 63 315 5.0 10.0 0.00 0.00 0.00 53 1018.2
20200714071838 63 309 4.0 10.0 0.00 0.00 0.00 54 1018.2
20200714071324 62 343 6.0 11.0 0.00 0.00 0.00 52 1018.3
20200714070841 62 319 8.0 11.0 0.00 0.00 0.00 52 1018.3
20200714070341 62 333 4.0 9.0 0.00 0.00 0.00 56 1018.2
20200714065839 62 321 5.0 10.0 0.00 0.00 0.00 57 1018.2
20200714065323 62 329 7.0 12.0 0.00 0.00 0.00 56 1018.2
20200714064829 62 317 7.0 12.0 0.00 0.00 0.00 58 1018.2
20200714064317 61 355 5.0 11.0 0.00 0.00 0.00 57 1018.2
20200714063849 61 341 6.0 11.0 0.00 0.00 0.00 57 1018.1
20200714063321 61 332 5.0 10.0 0.00 0.00 0.00 60 1018.2
20200714062830 61 343 4.0 11.0 0.00 0.00 0.00 61 1018.2
20200714062329 61 334 8.0 11.0 0.00 0.00 0.00 61 1018.1
20200714061844 61 323 5.0 9.0 0.00 0.00 0.00 63 1018.2
20200714061324 60 311 4.0 8.0 0.00 0.00 0.00 64 1018.1
20200714060830 60 329 5.0 6.0 0.00 0.00 0.00 64 1018.1
20200714060317 60 344 2.0 6.0 0.00 0.00 0.00 66 1018.1
20200714055833 60 340 3.0 6.0 0.00 0.00 0.00 66 1018.2
20200714055330 60 342 3.0 6.0 0.00 0.00 0.00 66 1018.2
20200714054839 60 334 4.0 8.0 0.00 0.00 0.00 66 1018.2
20200714054316 59 344 5.0 8.0 0.00 0.00 0.00 69 1018.2
20200714053836 57 315 3.0 6.0 0.00 0.00 0.00 74 1018.3
20200714053331 56 319 0.0 2.0 0.00 0.00 0.00 75 1018.3
20200714052831 56 319 1.0 3.0 0.00 0.00 0.00 75 1018.3
20200714052321 56 319 1.0 3.0 0.00 0.00 0.00 76 1018.3
20200714051846 55 318 1.0 3.0 0.00 0.00 0.00 76 1018.3
20200714051315 55 314 1.0 3.0 0.00 0.00 0.00 76 1018.4
20200714050840 55 314 1.0 3.0 0.00 0.00 0.00 76 1018.3
20200714050316 55 337 2.0 3.0 0.00 0.00 0.00 75 1018.3
20200714045834 55 327 2.0 3.0 0.00 0.00 0.00 75 1018.3
20200714045335 55 336 1.0 4.0 0.00 0.00 0.00 75 1018.3
20200714044832 55 347 3.0 4.0 0.00 0.00 0.00 76 1018.3
20200714044334 54 360 0.0 5.0 0.00 0.00 0.00 77 1018.3
20200714043833 54 360 1.0 5.0 0.00 0.00 0.00 78 1018.4
20200714043334 54 347 3.0 4.0 0.00 0.00 0.00 77 1018.3
20200714042850 54 360 2.0 5.0 0.00 0.00 0.00 77 1018.3
20200714042318 54 342 2.0 9.0 0.00 0.00 0.00 77 1018.3
20200714041846 54 9 4.0 9.0 0.00 0.00 0.00 77 1018.4
20200714041325 54 339 3.0 8.0 0.00 0.00 0.00 77 1018.4
20200714040843 54 340 5.0 8.0 0.00 0.00 0.00 77 1018.3
20200714040324 54 338 3.0 6.0 0.00 0.00 0.00 78 1018.4
20200714035845 54 324 2.0 6.0 0.00 0.00 0.00 77 1018.4
20200714035326 54 345 3.0 10.0 0.00 0.00 0.00 77 1018.4
20200714034842 54 349 6.0 10.0 0.00 0.00 0.00 77 1018.4
20200714034324 54 335 6.0 9.0 0.00 0.00 0.00 76 1018.4
20200714033831 55 344 7.0 9.0 0.00 0.00 0.00 76 1018.4
20200714033332 55 336 6.0 9.0 0.00 0.00 0.00 76 1018.4
20200714032829 55 340 4.0 9.0 0.00 0.00 0.00 77 1018.5
20200714032326 55 346 6.0 9.0 0.00 0.00 0.00 77 1018.5
20200714031858 55 331 8.0 10.0 0.00 0.00 0.00 77 1018.5
20200714031318 55 331 5.0 10.0 0.00 0.00 0.00 77 1018.4
20200714030834 55 336 6.0 10.0 0.00 0.00 0.00 76 1018.5
20200714030331 55 343 4.0 8.0 0.00 0.00 0.00 77 1018.6
20200714025841 54 332 4.0 9.0 0.00 0.00 0.00 78 1018.5
20200714025323 54 338 5.0 9.0 0.00 0.00 0.00 79 1018.6
20200714024851 54 335 3.0 6.0 0.00 0.00 0.00 79 1018.7
20200714024342 54 336 3.0 5.0 0.00 0.00 0.00 79 1018.7
20200714023836 54 316 3.0 5.0 0.00 0.00 0.00 77 1018.8
20200714023316 54 325 3.0 8.0 0.00 0.00 0.00 77 1018.8
20200714022839 54 329 5.0 10.0 0.00 0.00 0.00 78 1018.8
20200714022343 54 326 7.0 10.0 0.00 0.00 0.00 78 1018.9
20200714021839 54 328 7.0 10.0 0.00 0.00 0.00 80 1018.9
20200714021326 53 327 7.0 10.0 0.00 0.00 0.00 80 1018.9
20200714020833 53 333 5.0 8.0 0.00 0.00 0.00 81 1019.0
20200714020328 53 344 3.0 9.0 0.00 0.00 0.00 81 1019.0
20200714015843 53 338 6.0 9.0 0.00 0.00 0.00 81 1019.0
20200714015323 53 332 6.0 9.0 0.00 0.00 0.00 82 1019.1
20200714014832 53 331 7.0 9.0 0.00 0.00 0.00 82 1019.1
20200714014341 53 327 6.0 9.0 0.00 0.00 0.00 82 1019.1
20200714013844 53 327 8.0 9.0 0.00 0.00 0.00 82 1019.1
20200714013332 53 330 7.0 8.0 0.00 0.00 0.00 81 1019.2
20200714012836 53 331 5.0 6.0 0.00 0.00 0.00 81 1019.2
20200714012333 53 331 5.0 6.0 0.00 0.00 0.00 81 1019.2
20200714011834 53 328 6.0 6.0 0.00 0.00 0.00 81 1019.2
20200714011316 54 337 3.0 9.0 0.00 0.00 0.00 80 1019.2
20200714010832 54 319 4.0 9.0 0.00 0.00 0.00 80 1019.3
20200714010344 54 324 6.0 8.0 0.00 0.00 0.00 80 1019.3
20200714005841 54 332 4.0 9.0 0.00 0.00 0.00 80 1019.4
20200714005342 54 327 6.0 9.0 0.00 0.00 0.00 80 1019.4
20200714004840 53 331 3.0 6.0 0.00 0.00 0.00 80 1019.5
20200714004327 54 324 4.0 8.0 0.00 0.00 0.00 79 1019.5
20200714003831 54 328 4.0 8.0 0.00 0.00 0.00 78 1019.5
20200714003340 54 325 6.0 9.0 0.00 0.00 0.00 78 1019.5
20200714002834 55 332 4.0 11.0 0.00 0.00 0.00 76 1019.5
20200714002326 55 355 9.0 12.0 0.00 0.00 0.00 76 1019.5
20200714001834 55 330 9.0 11.0 0.00 0.00 0.00 76 1019.5
20200714001333 55 332 7.0 10.0 0.00 0.00 0.00 76 1019.5
20200714000833 55 330 7.0 10.0 0.00 0.00 0.00 76 1019.6
20200714000330 55 329 9.0 10.0 0.00 0.00 0.00 76 1019.6
20200713235831 55 337 4.0 6.0 0.00 0.00 0.00 75 1019.6
20200713235332 56 336 3.0 8.0 0.00 0.00 0.00 75 1019.6
20200713235227 56 346 4.0 8.0 0.00 0.00 0.00 74 1019.6
20200713235153 56 332 6.0 9.0 0.00 0.00 0.00 73 1019.6
20200713233840 56 338 6.0 9.0 0.00 0.00 0.00 73 1019.6
20200713233319 56 348 4.0 8.0 0.00 0.00 0.00 73 1019.6
20200713232846 56 347 5.0 8.0 0.00 0.00 0.00 73 1019.7
20200713232345 55 340 4.0 6.0 0.00 0.00 0.00 73 1019.7
20200713231839 56 342 4.0 8.0 0.00 0.00 0.00 72 1019.7
20200713231340 56 335 4.0 8.0 0.00 0.00 0.00 71 1019.7
20200713230922 56 346 4.0 8.0 0.00 0.00 0.00 71 1019.7
20200713230330 56 344 5.0 8.0 0.00 0.00 0.00 72 1019.7
20200713225845 56 334 4.0 6.0 0.00 0.00 0.00 71 1019.7
20200713225334 56 338 3.0 10.0 0.00 0.00 0.00 71 1019.7
20200713224838 56 325 7.0 11.0 0.00 0.00 0.00 70 1019.8
20200713224316 56 328 8.0 11.0 0.00 0.00 0.00 69 1019.8
20200713223834 56 342 8.0 10.0 0.00 0.00 0.00 69 1019.8
20200713223318 56 337 6.0 9.0 0.00 0.00 0.00 70 1019.8
20200713222838 56 323 5.0 9.0 0.00 0.00 0.00 69 1019.8
20200713222335 57 331 5.0 9.0 0.00 0.00 0.00 68 1019.8
20200713221833 57 327 6.0 9.0 0.00 0.00 0.00 67 1019.8
20200713221344 56 347 7.0 9.0 0.00 0.00 0.00 69 1019.8
20200713220842 57 335 5.0 9.0 0.00 0.00 0.00 69 1019.8
20200713220410 57 338 6.0 8.0 0.00 0.00 0.00 68 1019.7
20200713215926 57 340 7.0 8.0 0.00 0.00 0.00 68 1019.8
20200713214936 57 339 6.0 8.0 0.00 0.00 0.00 68 1019.7
20200713214341 57 339 5.0 9.0 0.00 0.00 0.00 69 1019.8
20200713213836 57 340 7.0 9.0 0.00 0.00 0.00 70 1019.8
20200713213326 57 342 6.0 8.0 0.00 0.00 0.00 70 1019.8
20200713212851 57 344 6.0 8.0 0.00 0.00 0.00 71 1019.8
20200713212329 57 350 7.0 8.0 0.00 0.00 0.00 70 1019.9
20200713211843 57 343 4.0 8.0 0.00 0.00 0.00 70 1019.9
20200713211328 57 340 5.0 8.0 0.00 0.00 0.00 70 1020.0
20200713210900 57 338 6.0 8.0 0.00 0.00 0.00 70 1020.0
20200713210317 57 329 5.0 8.0 0.00 0.00 0.00 70 1020.1
20200713205829 57 325 6.0 8.0 0.00 0.00 0.00 69 1020.0
20200713205325 57 322 6.0 6.0 0.00 0.00 0.00 69 1020.1
20200713204831 58 314 5.0 6.0 0.00 0.00 0.00 68 1020.0
20200713204337 58 312 4.0 5.0 0.00 0.00 0.00 67 1019.9
20200713203849 59 312 4.0 6.0 0.00 0.00 0.00 66 1019.9
20200713203331 59 311 4.0 6.0 0.00 0.00 0.00 66 1020.0
20200713202840 59 310 3.0 6.0 0.00 0.00 0.00 65 1020.0
20200713202339 59 314 4.0 6.0 0.00 0.00 0.00 65 1019.9
20200713201852 59 314 5.0 6.0 0.00 0.00 0.00 65 1019.9
20200713201320 60 317 5.0 6.0 0.00 0.00 0.00 65 1019.9
20200713200832 60 310 4.0 6.0 0.00 0.00 0.00 64 1019.9
20200713200340 60 311 4.0 6.0 0.00 0.00 0.00 63 1019.9
20200713195829 61 320 5.0 6.0 0.00 0.00 0.00 63 1019.8
20200713195327 62 323 5.0 6.0 0.00 0.00 0.00 61 1019.8
20200713194834 62 317 4.0 5.0 0.00 0.00 0.00 60 1019.8
20200713194334 63 319 4.0 5.0 0.00 0.00 0.00 60 1019.7
20200713193830 63 318 4.0 6.0 0.00 0.00 0.00 59 1019.7
20200713193326 63 316 4.0 6.0 0.00 0.00 0.00 58 1019.7
20200713192844 64 315 5.0 6.0 0.00 0.00 0.00 56 1019.7
20200713192323 65 328 4.0 5.0 0.00 0.00 0.00 56 1019.7
20200713191829 65 325 3.0 4.0 0.00 0.00 0.00 55 1019.8
20200713191328 66 314 3.0 5.0 0.00 0.00 0.00 54 1019.7
20200713190839 66 317 4.0 6.0 0.00 0.00 0.00 53 1019.7
20200713190330 67 319 3.0 6.0 0.00 0.00 0.00 51 1019.8
20200713185844 67 317 3.0 6.0 0.00 0.00 0.00 51 1019.8
20200713185328 68 321 3.0 6.0 0.00 0.00 0.00 50 1019.7
20200713184836 69 319 3.0 5.0 0.00 0.00 0.00 49 1019.7
20200713184320 70 324 4.0 6.0 0.00 0.00 0.00 47 1019.7
20200713183853 71 324 4.0 6.0 0.00 0.00 0.00 44 1019.7
20200713183324 72 313 5.0 9.0 0.00 0.00 0.00 42 1019.7
20200713182840 72 342 5.0 11.0 0.00 0.00 0.00 40 1019.7
20200713182345 73 326 8.0 11.0 0.00 0.00 0.00 40 1019.7
20200713181840 73 309 6.0 11.0 0.00 0.00 0.00 39 1019.7
20200713181343 73 319 4.0 8.0 0.00 0.00 0.00 40 1019.7
20200713180842 73 318 5.0 8.0 0.00 0.00 0.00 39 1019.7
20200713180342 74 325 5.0 10.0 0.00 0.00 0.00 39 1019.8
20200713175854 74 310 7.0 10.0 0.00 0.00 0.00 40 1019.7
20200713175334 75 315 2.0 10.0 0.00 0.00 0.00 38 1019.7
20200713174846 75 319 6.0 10.0 0.00 0.00 0.00 37 1019.8
20200713174326 75 314 6.0 11.0 0.00 0.00 0.00 37 1019.7
20200713173845 75 310 8.0 11.0 0.00 0.00 0.00 37 1019.7
20200713173328 76 313 6.0 10.0 0.00 0.00 0.00 37 1019.7
20200713172840 76 283 2.0 11.0 0.00 0.00 0.00 36 1019.7
20200713172340 76 336 6.0 11.0 0.00 0.00 0.00 38 1019.7
20200713171857 77 323 3.0 10.0 0.00 0.00 0.00 37 1019.7
20200713171336 76 301 5.0 11.0 0.00 0.00 0.00 36 1019.7
20200713170845 77 325 8.0 11.0 0.00 0.00 0.00 36 1019.8
20200713170343 77 9 3.0 9.0 0.00 0.00 0.00 37 1019.7
20200713165835 77 344 4.0 13.0 0.00 0.00 0.00 36 1019.8
20200713165345 77 341 7.0 13.0 0.00 0.00 0.00 36 1019.8
20200713164834 77 306 5.0 9.0 0.00 0.00 0.00 35 1019.8
20200713164330 77 315 4.0 9.0 0.00 0.00 0.00 35 1019.8
20200713163830 78 313 3.0 13.0 0.00 0.00 0.00 35 1019.9
20200713163317 78 332 8.0 13.0 0.00 0.00 0.00 35 1019.9
20200713162848 78 335 5.0 12.0 0.00 0.00 0.00 35 1020.0
20200713162332 78 348 5.0 12.0 0.00 0.00 0.00 36 1020.0
20200713161900 78 331 8.0 12.0 0.00 0.00 0.00 35 1020.1
20200713161318 78 331 4.0 9.0 0.00 0.00 0.00 35 1020.2
20200713160837 78 277 2.0 12.0 0.00 0.00 0.00 35 1020.2
20200713160330 78 344 4.0 12.0 0.00 0.00 0.00 36 1020.2
20200713155856 79 342 6.0 12.0 0.00 0.00 0.00 36 1020.3
20200713155328 79 22 3.0 10.0 0.00 0.00 0.00 35 1020.2
20200713154846 79 15 7.0 10.0 0.00 0.00 0.00 38 1020.4
20200713154331 79 360 3.0 6.0 0.00 0.00 0.00 35 1020.4
20200713153856 78 293 3.0 8.0 0.00 0.00 0.00 33 1020.4
20200713153317 79 285 3.0 12.0 0.00 0.00 0.00 35 1020.4
20200713152833 79 327 9.0 12.0 0.00 0.00 0.00 34 1020.5
20200713152327 78 322 2.0 10.0 0.00 0.00 0.00 33 1020.5
20200713151846 79 306 6.0 14.0 0.00 0.00 0.00 36 1020.5
20200713151324 79 310 9.0 14.0 0.00 0.00 0.00 34 1020.5
20200713150843 79 273 6.0 11.0 0.00 0.00 0.00 34 1020.5
20200713150318 78 15 3.0 8.0 0.00 0.00 0.00 36 1020.6
20200713145854 78 197 5.0 8.0 0.00 0.00 0.00 34 1020.6
20200713145345 79 275 4.0 11.0 0.00 0.00 0.00 33 1020.7
20200713144854 78 298 6.0 13.0 0.00 0.00 0.00 34 1020.7
20200713144327 80 303 8.0 13.0 0.00 0.00 0.00 35 1020.8
20200713143854 79 9 3.0 8.0 0.00 0.00 0.00 33 1020.8
20200713143320 78 133 2.0 8.0 0.00 0.00 0.00 32 1020.9
20200713142851 79 48 1.0 11.0 0.00 0.00 0.00 34 1020.9
20200713142326 79 9 7.0 21.0 0.00 0.00 0.00 35 1021.0
20200713141831 79 340 9.0 21.0 0.00 0.00 0.00 33 1020.9
20200713141331 79 334 4.0 8.0 0.00 0.00 0.00 36 1021.1
20200713140849 78 355 3.0 8.0 0.00 0.00 0.00 34 1021.1
20200713140327 78 81 3.0 10.0 0.00 0.00 0.00 32 1021.2
20200713135841 79 323 3.0 14.0 0.00 0.00 0.00 36 1021.2
20200713135342 78 313 9.0 14.0 0.00 0.00 0.00 33 1021.3
20200713134839 79 324 3.0 16.0 0.00 0.00 0.00 32 1021.3
20200713134318 79 338 4.0 14.0 0.00 0.00 0.00 39 1021.4
20200713133833 78 106 3.0 11.0 0.00 0.00 0.00 33 1021.4
20200713133322 79 319 6.0 15.0 0.00 0.00 0.00 35 1021.5
20200713132848 78 9 9.0 15.0 0.00 0.00 0.00 34 1021.5
20200713132325 78 26 8.0 15.0 0.00 0.00 0.00 36 1021.5
20200713131840 78 310 5.0 9.0 0.00 0.00 0.00 37 1021.5
20200713131328 78 355 2.0 9.0 0.00 0.00 0.00 35 1021.6
20200713130832 77 277 5.0 9.0 0.00 0.00 0.00 38 1021.6
20200713130320 79 22 5.0 10.0 0.00 0.00 0.00 37 1021.7
20200713125933 79 24 5.0 10.0 0.00 0.00 0.00 39 1021.7
20200713125332 78 250 6.0 8.0 0.00 0.00 0.00 36 1021.7
20200713124849 77 320 3.0 8.0 0.00 0.00 0.00 36 1021.8
20200713124327 77 290 4.0 13.0 0.00 0.00 0.00 40 1021.8
20200713123855 77 311 5.0 13.0 0.00 0.00 0.00 39 1021.9
20200713123344 78 15 8.0 12.0 0.00 0.00 0.00 37 1022.0
20200713122840 77 65 5.0 11.0 0.00 0.00 0.00 40 1022.1
20200713122341 76 84 5.0 11.0 0.00 0.00 0.00 42 1022.1
20200713121845 75 340 4.0 11.0 0.00 0.00 0.00 43 1022.2
20200713121325 77 68 5.0 11.0 0.00 0.00 0.00 39 1022.2
20200713120852 76 50 1.0 9.0 0.00 0.00 0.00 37 1022.3